Lid_Strength_Index
4 5 5 5 5 5 7 10 11 7 8 10 13 12 10 7 7 8 9 9 10 10 10 12 12 12 9 6 8 11 11 13 13 13 10 10 12 14 14 15 15 15 14 15
5 5 5 5 6 5 7 10 10 6 8 12 12 10 8 7 9 10 9 9 9 9 11 13 11 10 7 7 8 10 11 13 15 13 11 10 11 11 15 16 15 16 17 16
5 5 5 5 6 6 7 10 9 8 10 11 10 12 10 10 8 9 8 9 8 10 11 11 12 10 7 6 7 5 7 12 13 15 14 12 13 12 11 15 15 15 15 15
4 4 4 5 5 6 9 9 10 8 10 9 11 10 10 8 11 9 9 9 9 10 12 13 12 10 10 8 6 7 9 13 12 12 11 11 12 12 12 14 13 14 14 15
4 4 4 4 4 6 8 9 8 8 9 8 10 10 11 8 11 10 10 10 10 11 14 12 13 12 12 12 10 10 11 12 13 12 10 11 12 11 12 12 12 13 13 14
4 4 3 3 3 6 11 10 7 7 9 9 10 10 9 10 9 9 8 9 11 11 11 10 12 13 11 12 11 10 11 12 14 15 11 12 14 12 12 12 11 12 14 12
4 4 4 2 3 4 6 10 9 8 10 9 9 8 8 8 10 10 9 10 11 10 9 9 11 11 10 9 10 11 11 12 13 14 13 18 11 8 9 11 10 10 10 10
5 4 3 2 2 3 5 7 9 8 10 8 8 8 8 10 10 10 9 9 9 10 9 11 13 13 13 11 10 11 11 11 14 15 16 13 11 9 10 11 12 9 10 9
4 4 3 2 2 3 4 6 9 9 9 10 6 8 8 11 12 11 10 8 9 9 12 12 15 15 15 13 11 11 11 11 12 15 16 18 12 8 6 7 14 8 8 9
4 4 4 2 3 3 4 6 8 10 9 7 7 9 9 9 11 11 11 10 7 10 13 14 14 14 11 15 14 14 13 13 14 14 16 13 8 7 6 14 13 7 7 8
5 4 3 2 3 2 4 7 7 9 8 7 5 4 8 9 11 11 10 10 9 11 11 13 13 14 12 13 12 13 14 14 14 14 16 15 7 8 11 9 8 7 6 7
5 5 3 3 3 3 3 8 7 7 9 7 4 3 2 5 8 10 11 10 10 9 11 12 12 12 13 14 14 11 13 12 12 12 12 10 8 8 7 8 7 7 6 6
5 5 4 3 2 3 3 6 8 8 8 5 5 5 7 8 8 7 9 9 8 9 9 11 12 12 12 14 13 12 10 10 11 11 10 9 8 6 7 7 7 7 5 5
5 5 4 3 2 3 3 4 8 9 9 9 7 5 8 7 7 6 7 6 8 9 10 12 12 13 11 13 11 11 10 10 10 11 9 8 7 6 6 6 5 5 5 5
5 5 4 2 2 3 4 3 4 7 8 9 8 5 6 8 6 6 7 8 9 10 10 11 12 12 10 12 12 13 9 10 11 12 8 8 8 6 5 5 6 5 5 5
5 5 4 3 2 2 5 9 5 5 8 7 10 7 8 7 7 7 7 8 9 10 10 11 10 8 9 12 13 11 10 9 9 9 8 7 6 5 4 5 5 4 4 4
5 4 4 4 3 4 8 8 6 5 7 7 9 10 8 7 8 8 9 9 9 9 10 10 9 10 11 12 13 9 8 7 8 6 6 7 6 6 4 4 3 3 4 4
4 4 4 4 3 4 7 6 4 5 7 6 10 10 9 7 9 9 9 9 9 9 10 9 9 9 10 11 10 9 8 6 6 5 6 6 6 5 4 4 4 5 5 4
4 4 4 6 8 10 7 2 3 6 5 8 9 10 11 7 9 9 8 9 10 9 11 11 8 11 13 9 9 8 7 6 6 5 5 5 5 6 5 4 5 5 5 4
4 5 7 9 7 2 2 5 7 6 6 5 9 8 9 8 9 10 9 10 11 12 10 9 11 11 9 8 8 7 6 5 5 7 7 7 7 6 6 5 5 4 4 4
4 5 6 5 2 5 7 8 10 9 10 8 7 8 9 7 9 9 9 11 11 12 11 10 12 12 9 8 7 7 6 5 5 5 5 5 5 5 5 5 5 4 4 4
5 5 5 4 5 7 9 10 9 10 11 9 8 8 7 7 6 8 9 11 10 13 10 11 13 10 9 8 7 6 6 5 5 5 5 5 5 4 5 5 4 4 3 3
4 4 6 7 7 12 11 13 11 11 9 9 8 8 7 7 7 8 9 11 12 9 11 13 10 9 8 7 7 6 6 5 5 5 5 5 5 4 4 4 4 4 4 4
6 7 12 10 11 10 10 10 9 8 8 8 9 9 9 9 8 8 11 9 9 12 14 13 9 8 7 6 6 6 6 6 5 5 5 4 4 4 4 4 4 5 5 5
7 7 12 10 8 8 8 7 8 7 6 7 9 8 8 9 10 9 10 12 12 12 12 9 8 8 7 7 7 6 6 7 6 6 5 5 5 5 6 5 5 5 5 5
6 7 9 8 9 8 8 8 7 6 6 6 7 9 10 10 10 11 12 12 13 11 8 8 8 8 8 7 7 7 6 7 7 6 6 5 5 5 6 6 6 6 5 5
7 9 6 8 8 8 7 6 7 6 7 9 8 10 11 9 11 12 10 11 9 8 7 7 7 7 7 7 7 7 7 7 7 7 6 6 6 6 6 6 6 5 5 5